#timestamp,LO_Frequency,Hit,StdDev 
1605063615.2,286047005.6,N
1605063635.0,286047005.5,N
1605063635.9,286047005.5,N
1605063655.8,286047006.9,N
1605063675.6,286047008.8,N
1605063695.4,286047008.6,N
1605063715.3,286047007.7,N
1605063735.1,286047009.3,N
1605063755.8,286047011.8,N
1605063775.7,286047011.4,N
1605063795.5,286047012.9,N
1605063815.4,286047014.2,N
1605063835.2,286047015.5,N
1605063855.0,286047015.1,N
1605063855.9,286047015.1,N
1605063875.8,286047014.4,N
1605063895.6,286047014.5,N
1605063915.4,286047016.3,N
1605063935.3,286047016.7,N
1605063955.1,286047014.3,N
1605063975.9,286047017.0,N
1605063995.7,286047014.2,N
1605064015.5,286047016.4,N
1605064035.4,286047018.2,N
1605064055.2,286047017.8,N
1605064075.0,286047017.5,N
1605064076.0,286047017.5,N
1605064095.8,286047019.8,N
1605064115.6,286047017.8,N
1605064135.5,286047020.1,N
1605064155.3,286047021.9,Y
1605064175.1,286047006.5,P
1605064195.9,286047005.8,N
1605064215.7,286047004.5,N
1605064235.6,286047006.9,N
1605064255.4,286047006.3,N
1605064275.2,286047006.1,N
1605064295.1,286047008.3,Y
1605064296.0,286047008.3,P
1605064315.8,286047000.0,N
1605064335.7,286047000.3,N
1605064355.5,286047004.3,N
1605064375.3,286047001.8,N
1605064395.2,286047002.7,N
1605064415.0,286047002.2,N
1605064415.9,286047002.2,N
1605064435.8,286047002.2,N
1605064455.6,286047001.4,N
1605064475.4,286047003.6,N
1605064495.3,286047003.8,N
1605064515.1,286047002.9,N
1605064535.8,286047003.0,N
1605064555.7,286047003.8,N
1605064575.5,286047005.3,N
1605064595.4,286047006.4,Y
1605064615.2,286047004.4,P
1605064635.0,286047001.7,N
1605064635.9,286047001.7,N
1605064655.8,286047001.4,N
1605064675.6,286047003.3,N
1605064695.4,286047004.0,Y
1605064715.3,286047002.7,P
1605064735.1,286046999.7,P
1605064755.9,286047002.5,N
1605064775.7,286047002.6,N
1605064795.5,286047001.7,N
1605064815.4,286047003.6,Y
1605064835.2,286047000.2,P
1605064855.1,286047000.1,N
1605064856.0,286047000.1,N
1605064875.8,286047000.2,N
1605064895.6,286047001.0,N
1605064915.5,286047000.6,N
1605064935.3,286047002.3,Y
1605064955.2,286047000.6,P
1605064975.9,286047001.4,P
1605064995.7,286047004.0,P
1605065015.6,286047001.8,N
1605065035.4,286047002.0,N
1605065055.2,286047002.7,N
1605065075.1,286047002.4,N
1605065076.0,286047002.4,N
1605065095.8,286047002.3,N
1605065115.7,286047000.4,N
1605065135.5,286046999.9,N
1605065155.3,286047000.1,N
1605065175.2,286046999.8,N
1605065195.0,286047004.1,Y
1605065195.9,286047004.1,P
1605065215.8,286046999.7,N
1605065235.6,286047002.1,N
1605065255.4,286047002.6,N
1605065275.3,286047000.2,N
1605065295.1,286047000.1,N
1605065315.8,286047002.3,N
1605065335.7,286047002.5,N
1605065355.5,286047002.2,N
1605065375.4,286047002.3,N
1605065395.2,286047002.8,N
1605065415.0,286047001.4,N
1605065415.9,286047001.4,N
1605065435.8,286046999.9,N
1605065455.6,286047002.8,N
1605065475.4,286047001.1,N
1605065495.3,286047001.2,N
1605065515.1,286046999.0,N
1605065535.9,286046995.1,Y
1605065555.7,286046993.5,P
1605065575.5,286046995.2,N
1605065595.4,286046994.9,N
1605065615.2,286046995.7,N
1605065635.1,286046996.0,N
1605065636.0,286046996.0,N
1605065655.8,286046996.4,N
1605065675.6,286046994.9,N
1605065695.5,286046997.0,N
1605065715.3,286046997.3,N
1605065735.1,286046996.4,N
1605065755.9,286046994.2,Y
1605065775.7,286046999.5,P
1605065795.6,286046997.2,N
1605065815.4,286046997.6,N
1605065835.2,286046995.6,Y
1605065855.1,286046997.7,P
1605065856.0,286046997.7,P
1605065875.8,286046994.9,P
1605065895.7,286046997.6,N
1605065915.5,286046997.3,N
1605065935.3,286046997.2,N
1605065955.2,286046998.0,N
1605065975.0,286046996.0,Y
1605065975.9,286046996.0,P
1605065995.8,286046997.4,P
1605066015.6,286046996.9,P
1605066035.4,286046997.2,Y
1605066055.3,286046998.2,P
1605066075.1,286046999.8,N
1605066095.8,286046999.9,N
1605066115.7,286046998.2,N
1605066135.5,286047000.8,N
1605066155.4,286046998.1,N
1605066175.2,286046998.4,N
1605066195.0,286047000.0,N
1605066195.9,286047000.0,N
1605066215.8,286047000.8,N
1605066235.6,286047001.2,N
1605066255.4,286046999.0,N
1605066275.3,286047000.7,N
1605066295.1,286047001.2,N
1605066315.9,286047000.8,N
1605066335.7,286047001.2,N
1605066355.5,286046998.3,N
1605066375.4,286046998.7,N
1605066395.2,286047000.3,N
1605066415.0,286046996.6,N
1605066415.9,286046996.6,N
1605066435.8,286046998.7,N
1605066455.6,286046998.1,N
1605066475.5,286046999.9,N
1605066495.3,286047002.7,N
1605066515.1,286047000.6,N
1605066535.9,286046999.0,N
1605066555.7,286046999.4,N
1605066575.5,286046998.1,N
1605066595.4,286047000.0,N
1605066615.2,286046998.1,N
1605066635.1,286046998.2,N
1605066636.0,286046998.2,N
1605066655.8,286046999.8,N
1605066675.6,286047000.1,N
1605066695.5,286047002.1,N
1605066715.3,286047004.1,N
1605066735.2,286047004.4,N
1605066755.9,286047001.5,N
1605066775.7,286047002.0,N
1605066795.6,286047001.9,N
1605066815.4,286047001.5,N
1605066835.2,286047004.3,N
1605066855.1,286047002.2,N
1605066856.0,286047002.2,N
1605066875.8,286047001.8,N
1605066895.7,286047001.9,N
1605066915.5,286047001.8,N
1605066935.3,286047002.0,N
1605066955.2,286047001.5,N
1605066975.0,286047001.7,N
1605066975.9,286047001.7,N
1605066995.8,286047001.6,N
1605067015.6,286047003.2,N
1605067035.4,286047004.4,N
1605067055.3,286047001.3,N
1605067075.1,286047005.5,Y
1605067095.8,286047004.1,P
1605067115.7,286047001.5,N
1605067135.5,286047003.2,N
1605067155.4,286047003.7,Y
1605067175.2,286047001.1,P
1605067195.0,286047000.2,N
1605067195.9,286047000.2,N
